Location: Casilda
(33.0440°S, 61.1680°W)
Time: 17:13:58
(UTC-03:00)

ISS - Pass Details

Date: 30 November 2020
Orbit: 418 x 420 km, 51.6° (Epoch: 04 December)

Event Time Altitude Azimuth Distance (km) Brightness Sun altitude
Exits shadow 04:03:34 17° 233° (SW) 1,149 -1.7 -18.9°
Maximum altitude 04:04:24 19° 214° (SSW) 1,094 -1.6 -18.8°
Drops below altitude 10° 04:06:56 10° 166° (SSE) 1,529 -0.1 -18.4°
Sets 04:09:30 0° 147° (SSE) 2,401 1.6 -18.0°
